This demonstration page uses our WeatherBlox Daily Observations layout. Learn more.

Left ArrowRight Arrow

44.8408, -93.29828

Hourly Observations for April 2, 2017

Temp ( °F °C ) Dew Point ( °F °C ) Humidity (%) Winds ( mph kmh ) Pressure ( in mb ) Visibility ( mi km ) Precip ( " mm )
12:53 am 00:53 Mostly Clear 52 11.1 28 -2.2 40 40 SSW 5 7 30.10 1019 10 16 0.00 0.00
1:53 am 01:53 Clear 50 10 29 -1.7 44 44 S 3 6 30.09 1019 10 16 0.00 0.00
2:53 am 02:53 Clear 48 8.9 30 -1.1 50 50 SSW 7 11 30.09 1019 10 16 0.00 0.00
3:53 am 03:53 Clear 47 8.3 31 -0.6 54 54 Calm 30.06 1018 10 16 0.00 0.00
4:53 am 04:53 Clear 43 6.1 31 -0.6 63 63 SSE 3 6 30.05 1018 10 16 0.00 0.00
5:53 am 05:53 Cloudy 42 5.6 33 0.6 71 71 SSE 6 9 30.06 1018 10 16 0.00 0.00
6:53 am 06:53 Mostly Cloudy 45 7.2 34 1.1 66 66 S 6 9 30.06 1018 10 16 0.00 0.00
7:53 am 07:53 Mostly Cloudy 46 7.8 34 1.1 63 63 SSW 3 6 30.06 1018 10 16 0.00 0.00
8:53 am 08:53 Mostly Cloudy 49 9.4 36 2.2 61 61 S 12 19 30.04 1017 10 16 0.00 0.00
9:53 am 09:53 Mostly Cloudy 49 9.4 37 2.8 64 64 S 9 15 30.01 1016 10 16 0.00 0.00
10:53 am 10:53 Cloudy 49 9.4 39 3.9 69 69 SSE 10 17 29.99 1016 10 16 0.00 0.03
11:53 am 11:53 Cloudy 50 10 39 3.9 66 66 S 12 19 29.98 1015 10 16 0.00 0.00
12:53 pm 12:53 Cloudy 50 10 39 3.9 66 66 SSE 13 20 29.95 1014 10 16 0.00 0.00
1:53 pm 13:53 Cloudy 51 10.6 41 5 69 69 SSE 12 19 29.91 1013 10 16 0.00 0.00
2:24 pm 14:24 Cloudy 54 12 41 5 63 63 SSE 15 24 29.91 1013 10 16 0.00 0.00
2:53 pm 14:53 Cloudy 54 12.2 41 5 62 62 S 15 24 29.89 1012 10 16 0.00 0.00
3:53 pm 15:53 Cloudy 55 12.8 42 5.6 62 62 S 13 20 29.85 1011 10 16 0.00 0.00
4:53 pm 16:53 Cloudy 54 12.2 43 6.1 67 67 S 14 22 29.84 1011 10 16 0.00 0.00
5:53 pm 17:53 Cloudy 54 12.2 44 6.7 69 69 S 9 15 29.82 1010 10 16 0.00 0.00
6:53 pm 18:53 Cloudy 53 11.7 43 6.1 69 69 S 8 13 29.83 1010 10 16 0.00 0.00
7:53 pm 19:53 Cloudy 52 11.1 44 6.7 75 75 S 9 15 29.83 1010 10 16 0.00 0.00
8:53 pm 20:53 Cloudy 51 10.6 44 6.7 77 77 S 9 15 29.82 1010 10 16 0.00 0.00
9:20 pm 21:20 Cloudy 52 11 45 7 77 77 SSE 10 17 29.83 1010 10 16 0.00 0.00
9:53 pm 21:53 Cloudy 50 10 44 6.7 80 80 S 8 13 29.82 1010 10 16 0.00 0.00
10:53 pm 22:53 Cloudy 50 10 44 6.7 80 80 S 8 13 29.81 1009 8 13 0.00 0.00
11:53 pm 23:53 Cloudy 49 9.4 45 7.2 86 86 SSE 7 11 29.79 1009 8 13 0.00 0.00

Powered by AerisWeather